Regional Weather Roundup
Issued by NWS Sioux Falls, SD

Home | Current Version | Previous Version | Text Only | Print | Product List | Glossary Off
Versions: 1 2 3 4 5 6 7 8 9 10 11 12 13 14 15 16 17 18 19 20 21 22 23 24 25 26 27 28 29 30 31 32 33 34 35 36 37 38 39 40 41 42 43 44 45 46 47 48 49 50

000
ASUS43 KFSD 281410
RWRFSD

WEATHER ROUNDUP FOR SE SOUTH DAKOTA/SW MINNESOTA/NW IOWA
NATIONAL WEATHER SERVICE SIOUX FALLS SD
900 AM CDT FRI APR 28 2017

NOTE: "FAIR" INDICATES FEW OR NO CLOUDS BELOW 12,000 FEET WITH NO
SIGNIFICANT WEATHER AND OR OBSTRUCTIONS TO VISIBILITY.


SDZ038>040-050-052>070-281500-
SOUTHEAST SOUTH DAKOTA

CITY           SKY/WX    TMP DP  RH WIND       PRES   REMARKS
BROOKINGS      CLOUDY    36  25  64 NE15      29.91R
CHAMBERLAIN    PTSUNNY   37  32  80 N10       29.91R
HURON          CLOUDY    41  27  57 NE13      29.94R
MADISON        FAIR      36  28  75 NE17G23   29.90R
MITCHELL       CLOUDY    36  31  82 NE8       29.93R
SIOUX FALLS    PTSUNNY   36  31  82 NE6       29.92R
WINNER         FAIR      39  31  72 E10       29.88R
YANKTON        CLOUDY    36  28  75 NE6       29.90R
$$

MNZ071-072-080-081-089-090-097-098-281500-
SOUTHWEST MINNESOTA

CITY           SKY/WX    TMP DP  RH WIND       PRES   REMARKS
FAIRMONT       CLOUDY    36  30  79 N5        29.91R
JACKSON        CLOUDY    34  32  93 N5        29.90R WCI  30
LUVERNE        CLOUDY    32  30  93 CALM      29.91R
MARSHALL       SUNNY     36  29  75 N14       29.93R
MONTEVIDEO     SUNNY     37  28  70 NE16      29.94R
PIPESTONE      CLOUDY    36  25  64 NE12      29.88R
REDWOOD FALLS  SUNNY     38  30  73 N10       29.92R
TRACY          SUNNY     36  31  83 N12       29.92R
WINDOM         CLOUDY    36  30  80 N17       29.89S
WORTHINGTON    MOSUNNY   35  31  85 N8        29.90R WCI  29
$$

IAZ001>003-012>014-020>022-031-032-NEZ013-014-SDZ071-281500-
NORTHWEST IOWA

CITY           SKY/WX    TMP DP  RH WIND       PRES   REMARKS
CHEROKEE       PTSUNNY   35  31  85 E7        29.90R WCI  29
DENISON        LGT SNOW  34  30  86 E14G22    29.88R WCI  24
ESTHERVILLE    CLOUDY    36  32  85 N3        29.89R
LE MARS        PTSUNNY   37  30  75 VRB3      29.91R
ORANGE CITY    CLOUDY    34  30  86 CALM      29.89R
SHELDON        CLOUDY    36  30  80 NE7       29.88R
SIOUX CITY     CLOUDY    37  29  72 E7        29.90R
SPENCER        PTSUNNY   34  30  85 N5        29.90R WCI  30
STORM LAKE     CLOUDY    34  28  80 SE12      29.89R WCI  25
$$

ABBREVIATIONS USED IN REMARKS
   TC - TEMPERATURE IN CELSIUS
  WCI - WIND CHILL INDEX
   HX - HEAT INDEX
  VSB - VISIBILITY





USA.gov is the U.S. government's official web portal to all federal, state and local government web resources and services.